Epoch = 2020 Dec. 17.0 TT T = 2020 Dec. 16.26997 TT Peri. = 153.54399 e = 0.7356668 Node = 241.84951 2000.0 q = 0.8079340 AU Incl. = 13.94456 a = 3.0564980 AU n = 0.18444543 P = 5.34 years
m1 = 13.5 + 5 logΔ + 25 log r(t - 15)